Time,TemperatureF,DewpointF,PressureIn,WindDirection,WindDirectionDegrees,WindSpeedMPH,WindSpeedGustMPH,Humidity,HourlyPrecipIn,Conditions,Clouds,dailyrainin,SoftwareType,DateUTC
2013-07-12 21:39:00,65.4,62.4,30.14,SE,125,0.0,0.0,90,0.00,,,0.00,Wunderground v.1.15,2013-07-13 02:39:00,
2013-07-12 21:44:00,65.0,62.0,30.14,SE,126,0.0,0.0,90,0.00,,,0.00,Wunderground v.1.15,2013-07-13 02:44:00,
2013-07-12 21:50:00,64.8,61.8,30.13,SE,126,0.0,0.0,90,0.00,,,0.00,Wunderground v.1.15,2013-07-13 02:50:00,
2013-07-12 22:00:00,64.3,61.6,30.14,SE,126,0.0,0.0,91,0.00,,,0.00,Wunderground v.1.15,2013-07-13 03:00:00,
2013-07-12 22:05:00,64.1,61.4,30.14,SE,126,0.0,0.0,91,0.00,,,0.00,Wunderground v.1.15,2013-07-13 03:05:00,
2013-07-12 22:15:00,63.7,61.0,30.14,SE,126,0.0,0.0,91,0.00,,,0.00,Wunderground v.1.15,2013-07-13 03:15:00,
2013-07-12 22:20:00,63.5,61.1,30.14,SE,125,0.0,0.0,92,0.00,,,0.00,Wunderground v.1.15,2013-07-13 03:20:00,
2013-07-12 22:25:00,63.3,60.9,30.14,SE,126,0.0,0.0,92,0.00,,,0.00,Wunderground v.1.15,2013-07-13 03:25:00,
2013-07-12 22:30:00,63.1,60.7,30.14,SE,126,0.0,0.0,92,0.00,,,0.00,Wunderground v.1.15,2013-07-13 03:30:00,
2013-07-12 22:40:00,62.8,60.4,30.13,SE,126,0.0,0.0,92,0.00,,,0.00,Wunderground v.1.15,2013-07-13 03:40:00,
2013-07-12 22:50:00,62.6,60.5,30.13,SE,126,0.0,0.0,93,0.00,,,0.00,Wunderground v.1.15,2013-07-13 03:50:00,
2013-07-12 22:55:00,62.6,60.5,30.13,SE,126,0.0,0.0,93,0.00,,,0.00,Wunderground v.1.15,2013-07-13 03:55:00,
2013-07-12 23:00:00,62.4,60.3,30.13,SE,125,0.0,0.0,93,0.00,,,0.00,Wunderground v.1.15,2013-07-13 04:00:00,
2013-07-12 23:05:00,62.3,60.2,30.13,SE,126,0.0,0.0,93,0.00,,,0.00,Wunderground v.1.15,2013-07-13 04:05:00,
2013-07-12 23:10:00,62.2,60.2,30.13,SE,125,0.0,0.0,93,0.00,,,0.00,Wunderground v.1.15,2013-07-13 04:10:00,
2013-07-12 23:15:00,62.1,60.1,30.13,SE,126,0.0,0.0,93,0.00,,,0.00,Wunderground v.1.15,2013-07-13 04:15:00,
2013-07-12 23:20:00,62.0,60.0,30.13,SE,125,0.0,0.0,93,0.00,,,0.00,Wunderground v.1.15,2013-07-13 04:20:00,
2013-07-12 23:30:00,61.7,59.7,30.13,SE,126,0.0,0.0,93,0.00,,,0.00,Wunderground v.1.15,2013-07-13 04:30:00,
2013-07-12 23:34:00,61.6,59.6,30.13,SE,125,0.0,0.0,93,0.00,,,0.00,Wunderground v.1.15,2013-07-13 04:34:00,
2013-07-12 23:40:00,61.4,59.7,30.13,SE,125,0.0,0.0,94,0.00,,,0.00,Wunderground v.1.15,2013-07-13 04:40:00,
2013-07-12 23:44:00,61.3,59.6,30.13,SE,125,0.0,0.0,94,0.00,,,0.00,Wunderground v.1.15,2013-07-13 04:44:00,
2013-07-12 23:50:00,61.2,59.5,30.13,SE,126,0.0,0.0,94,0.00,,,0.00,Wunderground v.1.15,2013-07-13 04:50:00,
2013-07-12 23:55:00,61.1,59.4,30.12,SE,125,0.0,0.0,94,0.00,,,0.00,Wunderground v.1.15,2013-07-13 04:55:00,